Regional Weather Roundup
Issued by NWS

Home | Current Version | Previous Version | Graphics & Text | Print | Product List | Glossary On
Versions: 1 2 3 4 5 6 7 8 9 10 11 12 13 14 15 16 17 18 19 20 21 22 23 24 25 26 27 28 29 30 31 32 33 34 35 36 37 38 39 40 41 42 43 44 45 46 47 48 49 50
000
ASUS43 KMPX 021501
RWRMN
WEATHER ROUNDUP FOR MINNESOTA
NATIONAL WEATHER SERVICE TWIN CITIES/CHANHASSEN MN
900 AM CST MON MAR 02 2015


NOTE: "FAIR" INDICATES FEW OR NO CLOUDS BELOW 12,000 FEET WITH NO
SIGNIFICANT WEATHER AND/OR OBSTRUCTIONS TO VISIBILITY. N/A MEANS
CURRENT SKY AND/OR WEATHER CONDITIONS ARE NOT AVAILABLE.

MNZ060>063-068>070-021600-
   Twin Cities Metro

CITY           SKY/WX    TMP DP  RH WIND       PRES   REMARKS
TWIN CITIES    SUNNY     15   9  76 SW6       30.51R WCI   6
ST PAUL        SUNNY     17  10  74 W7        30.53R WCI   8
CRYSTAL        SUNNY     17  10  74 SW6       30.49R WCI   9
BLAINE         SUNNY     18  12  79 SW6       30.48R WCI   9
LAKEVILLE      SUNNY     12  10  92 W5        30.49R WCI   4
EDEN PRAIRIE   SUNNY     12   8  84 SW5       30.49R WCI   4
SOUTH ST PAUL  SUNNY     18  11  74 SW6       30.51R WCI   9
LAKE ELMO      FAIR      18  12  79 SW3       30.50R
$$
MNZ001>005-007-008-013>017-022>024-027-028-021600-
   Northwest Minnesota

CITY           SKY/WX    TMP DP  RH WIND       PRES   REMARKS
BEMIDJI        MOSUNNY    4   1  88 SW7       30.32R WCI  -8
HALLOCK        MOSUNNY    0  -6  78 SE9       30.27F WCI -16
ROSEAU         MOSUNNY    0  -6  78 S8        30.28S WCI -15
WARROAD        MOSUNNY    1  -2  85 S6        30.28S WCI -10
THIEF RVR FALL MOSUNNY    0  -2  92 S5        30.31S WCI -10
CROOKSTON      MOSUNNY    5   0  78 S12       30.35R WCI -11
FOSSTON        MOSUNNY    3   1  92 S6        30.33R WCI  -8
DETROIT LAKES  MOSUNNY   10   9  92 SW5       30.35R WCI   2
MOORHEAD       MOSUNNY   10   7  85 S9        30.38R WCI  -2
PARK RAPIDS    MOSUNNY    7   3  84 S5        30.34R WCI  -2
MAHNOMEN       FAIR       6   3  88 S12       30.34R WCI -10
$$
MNZ006-009>011-018-025>026-021600-
   North Central Minnesota

CITY           SKY/WX    TMP DP  RH WIND       PRES   REMARKS
BAUDETTE       MOSUNNY   -3  -7  82 S3        30.27F
FLAG ISLAND    MOSUNNY   -6  -9  84 SE7       30.27S WCI -20
INTL FALLS     MOSUNNY    3   0  87 CALM      30.30F
WASKISH        MOSUNNY   10   7  85 CALM      30.31R
BIG FORK       MOSUNNY    5   1  85 CALM      30.31S
LONGVILLE      MOSUNNY    7   3  85 SW5       30.36R WCI  -2
GRAND RAPIDS   MOSUNNY    7   3  85 S5        30.33R WCI  -2
CRANE LAKE     MOSUNNY    5   1  85 CALM      30.35F
ORR            PTSUNNY    7   1  78 CALM      30.29S
COOK           MOSUNNY    7   3  85 CALM      30.32S
WALKER         FAIR       5   1  86 SW5       30.33R WCI  -4
$$
MNZ012-019>021-037-021600-
   Northeast Minnesota

CITY           SKY/WX    TMP DP  RH WIND       PRES   REMARKS
DULUTH         SUNNY     11   4  73 W6        30.35R WCI   1
ELY            MOSUNNY    5   1  85 SW2       30.31S
HIBBING        MOSUNNY    5   0  79 VRB3      30.33S
EVELETH        MOSUNNY    5   1  85 SW3       30.34S
DULUTH HARBOR  SUNNY     12   5  73 CALM      30.43S
TWO HARBORS    SUNNY     16   7  67 W5        30.34  WCI   9
SILVER BAY     SUNNY     14   3  62 W3        30.34S
GRAND MARAIS     N/A     17   6  62 SW8       30.38R WCI   7
G MARAIS ARPRT SUNNY     12   0  57 NW6       30.26S WCI   3
$$
MNZ029>031-032-039>041-046>048-054>057-064-021600-
   West Central Minnesota

CITY           SKY/WX    TMP DP  RH WIND       PRES   REMARKS
FERGUS FALLS   MOSUNNY   10   1  67 S9        30.43R WCI  -2
WHEATON        SUNNY     12   3  67 S9        30.41  WCI   0
MORRIS         SUNNY     16   7  67 S8        30.39F WCI   5
ALEXANDRIA     MOSUNNY   11   6  81 S12       30.40R WCI  -3
ELBOW LAKE     FAIR      10   4  77 S10       30.39S WCI  -3
WADENA         MOSUNNY    7   3  85 CALM      30.37R
GLENWOOD       MOSUNNY   12  10  92 S7        30.41R WCI   2
APPLETON       SUNNY     16   9  73 S5        30.42F HAZE    WCI   9
BENSON         SUNNY     12   7  79 S3        30.43S
ORTONVILLE     SUNNY     12   3  67 S6        30.40F WCI   3
MADISON        SUNNY     14   7  73 S6        30.42F WCI   5
WILLMAR        FAIR      12   9  85 S3        30.45S
$$
MNZ033>034-036-042>043-049>051-058-059-021600-
   Central Minnesota

CITY           SKY/WX    TMP DP  RH WIND       PRES   REMARKS
ST CLOUD       SUNNY     13   8  81 SW6       30.45R WCI   4
SAUK CENTRE    FAIR      13   9  84 S6        30.42R WCI   4
PAYNESVILLE    SUNNY     10   8  92 CALM      30.45R
AITKIN         MOSUNNY   12   7  79 S3        30.37R
PINE RIVER     MOSUNNY    9   5  85 SW3       30.39R
BRAINERD       MOSUNNY    7   5  91 SW3       30.39R
STAPLES        MOSUNNY   10   9  92 S5        30.38R WCI   2
LONG PRAIRIE   FAIR      10   7  85 S6        30.41R WCI   1
LITTLE FALLS   SUNNY     10   7  85 CALM      30.42R
LITCHFIELD     SUNNY     16  12  86 CALM      30.46R
MAPLE LAKE     SUNNY     16  13  88 CALM      30.48R
$$
MNZ037-044-045-052-053-021600-
   East Central Minnesota

CITY           SKY/WX    TMP DP  RH WIND       PRES   REMARKS
PRINCETON      SUNNY     12  10  92 CALM      30.46R
MORA           SUNNY     12   7  79 SW5       30.45R WCI   4
RUSH CITY      SUNNY     12   9  89 SW5       30.46R WCI   4
MOOSE LAKE     SUNNY      9   5  85 CALM      30.40R
HINCKLEY       FAIR      12   9  85 SW5       30.43R WCI   4
CLOQUET        SUNNY     10   5  79 W3        30.36S
MCGREGOR       MOSUNNY   10   9  92 SW5       30.39R WCI   2
$$
MNZ071>073-080-081-089-090-097-098-021600-
   Southwest Minnesota

CITY           SKY/WX    TMP DP  RH WIND       PRES   REMARKS
MONTEVIDEO     SUNNY     18  12  79 SW6       30.45S WCI   9
GRANITE FALLS  SUNNY     12   8  83 CALM      30.46F
CANBY          MOSUNNY   17   8  70 S6        30.43S WCI   8
MARSHALL       SUNNY     14   7  73 S6        30.45R WCI   5
REDWOOD FALLS  SUNNY     12   8  84 S3        30.46R
OLIVIA         SUNNY     14  10  85 S3        30.45S
PIPESTONE      SUNNY     12  10  92 S7        30.39S WCI   2
WINDOM         MOSUNNY   10   9  92 CALM      30.44F
WORTHINGTON    MOSUNNY   14   7  73 S8        30.45R WCI   3
JACKSON        MOSUNNY   14  10  85 S5        30.44S WCI   6
TRACY          MOSUNNY   17   9  68 S7        30.43F WCI   8
SLAYTON        MOSUNNY   16   8  70 CALM      30.42S
$$
MNZ065>067-074>077-082>085-091>093-021600-
   South Central Minnesota

CITY           SKY/WX    TMP DP  RH WIND       PRES   REMARKS
MANKATO        MOSUNNY   10   7  85 CALM      30.49R
NEW ULM        MOSUNNY   10   9  92 CALM      30.47S
ST JAMES       MOSUNNY   16  10  79 CALM      30.49R
FAIRMONT       MOSUNNY   12   7  79 SW5       30.47R WCI   4
GLENCOE        SUNNY     15  13  92 CALM      30.47S
FARIBAULT      SUNNY     10   7  85 CALM      30.50R
OWATONNA       DRIZZLE   10   7  85 CALM      30.48S
WASECA         MOSUNNY    9   5  85 CALM      30.50R FOG
ALBERT LEA       N/A     10   9  92 CALM      30.47R
$$
MNZ078>079-086>088-094>096-021600-
   Southeast Minnesota

CITY           SKY/WX    TMP DP  RH WIND       PRES   REMARKS
ROCHESTER      FLURRIES   8   5  87 W3        30.47R
RED WING       SUNNY     16   7  67 W3        30.51R
STANTON        SUNNY     13   9  86 S3        30.50R
DODGE CENTER   SUNNY      7   3  85 CALM      30.46R
WINONA         SUNNY     18   9  68 CALM      30.53R
AUSTIN         SUNNY      3   0  85 CALM      30.49R
PRESTON        SUNNY      9   6  88 W3        30.48R
$$
ABBREVIATIONS USED IN REMARKS
   TC - TEMPERATURES IN CELSIUS
  WCI - WIND CHILL INDEX
   HX - HEAT INDEX
  VSB - VISIBILITY
$$



USA.gov is the U.S. government's official web portal to all federal, state and local government web resources and services.